Janesville, WI

4:21 PM CDT on April 26, 2018 (GMT -0500)
Rock County

Weather History for KJVL - January, 2014

Change the Weather History Date:

Wednesday, January 15, 2014

  Actual Average Record
Temperature  
Mean Temperature 16 °F -  
Max Temperature 21 °F 26 °F 41 °F (2006)
Min Temperature 12 °F 13 °F -14 °F (2009)
Degree Days  
Heating Degree Days 48    
Moisture  
Dew Point 9 °F    
Average Humidity 73    
Maximum Humidity 80    
Minimum Humidity 62    
Precipitation  
Precipitation 0.00 in - - ()
Sea Level Pressure  
Sea Level Pressure 29.91 in    
Wind  
Wind Speed 10 mph (West)    
Max Wind Speed 17 mph    
Max Gust Speed 23 mph    
Visibility 10 miles    
Events Snow    
Averages and records for this station are not official NWS values.
T = Trace of Precipitation, MM = Missing Value Source: NWS Daily Summary

Daily Weather History Graph

Daily Weather History Graph

Search for Another Location

Airport or City:

Astronomy

Jan. 15, 2014 Rise Set
Actual Time 7:23 AM CST 4:48 PM CST
Civil Twilight 6:52 AM CST 5:19 PM CST
Nautical Twilight 6:17 AM CST 5:54 PM CST
Astronomical Twilight 5:43 AM CST 6:27 PM CST
Moon 4:47 PM CST (1/15) 6:38 AM CST (1/15)
Length of Visible Light 10h 27m
Length of Day
9h 24m
Full, 100% of the Moon is Illuminated
Jan 15
Full
Jan 15
Full
Jan 23
Last Quarter
Jan 30
New
Feb 6
First Quarter

Hourly Weather History & Observations

Time (CST) Temp. Windchill Dew Point Humidity Pressure Visibility Wind Dir Wind Speed Gust Speed Precip Events Conditions
12:15 AM 19.4 °F 7.9 °F 14.0 °F 80% 29.90 in 5.0 mi WNW 10.4 mph - N/A Snow Light Snow
12:35 AM 19.4 °F 7.2 °F 14.0 °F 80% 29.91 in 7.0 mi NW 11.5 mph - N/A Snow Light Snow
12:55 AM 19.4 °F 6.6 °F 10.4 °F 68% 29.93 in 10.0 mi NW 12.7 mph 20.7 mph N/A   Scattered Clouds
1:15 AM 17.6 °F 5.7 °F 10.4 °F 73% 29.93 in 10.0 mi WNW 10.4 mph - N/A Snow Light Snow
1:35 AM 17.6 °F 6.4 °F 10.4 °F 73% 29.94 in 10.0 mi WNW 9.2 mph - N/A Snow Light Snow
1:55 AM 17.6 °F 9.3 °F 10.4 °F 73% 29.95 in 5.0 mi West 5.8 mph - N/A Snow Light Snow
2:15 AM 15.8 °F 4.2 °F 10.4 °F 79% 29.95 in 10.0 mi WNW 9.2 mph - N/A Snow Light Snow
2:35 AM 15.8 °F 4.2 °F 10.4 °F 79% 29.96 in 10.0 mi WNW 9.2 mph - N/A   Clear
2:55 AM 15.8 °F 3.4 °F 8.6 °F 73% 29.97 in 10.0 mi WNW 10.4 mph - N/A   Clear
3:15 AM 14.0 °F 1.2 °F 8.6 °F 79% 29.98 in 10.0 mi WNW 10.4 mph - N/A   Clear
3:35 AM 14.0 °F 1.2 °F 8.6 °F 79% 29.98 in 10.0 mi WNW 10.4 mph - N/A   Clear
3:55 AM 14.0 °F 1.2 °F 8.6 °F 79% 29.98 in 10.0 mi WNW 10.4 mph - N/A   Clear
4:15 AM 14.0 °F 2.9 °F 6.8 °F 73% 29.98 in 10.0 mi WNW 8.1 mph - N/A   Clear
4:35 AM 14.0 °F 2.9 °F 6.8 °F 73% 29.99 in 10.0 mi NW 8.1 mph - N/A   Clear
5:45 AM 12.2 °F 0.7 °F 3.2 °F 67% 30.00 in - NW 8.1 mph - N/A   Clear
6:45 AM 14.0 °F 3.9 °F 6.8 °F 73% 30.02 in 10.0 mi WNW 6.9 mph - N/A   Overcast
7:45 AM - - - N/A% 30.04 in 10.0 mi WNW 10.4 mph - N/A   Overcast
8:45 AM 15.8 °F 6.1 °F 6.8 °F 68% 30.05 in 10.0 mi WNW 6.9 mph - N/A   Overcast
9:45 AM 14.0 °F 2.9 °F 6.8 °F 73% - 10.0 mi WNW 8.1 mph - N/A   Overcast
10:45 AM 14.0 °F 2.9 °F 6.8 °F 73% - 10.0 mi WNW 8.1 mph - N/A   Overcast
11:45 AM 15.8 °F 4.2 °F 6.8 °F 68% - 10.0 mi WNW 9.2 mph - N/A   Overcast
12:45 PM 15.8 °F 6.1 °F 6.8 °F 68% - 10.0 mi West 6.9 mph - N/A   Overcast
1:45 PM 15.8 °F 7.2 °F 5.0 °F 62% - 10.0 mi West 5.8 mph - N/A   Mostly Cloudy
2:45 PM 15.8 °F 5.1 °F 5.0 °F 62% 30.00 in 10.0 mi WSW 8.1 mph - N/A   Clear
3:45 PM 14.0 °F 2.0 °F 5.0 °F 67% - 10.0 mi WSW 9.2 mph - N/A   Clear
4:45 PM 12.2 °F 0.7 °F 3.2 °F 67% 29.99 in 10.0 mi WSW 8.1 mph - N/A   Clear
5:45 PM 14.0 °F 1.2 °F 5.0 °F 67% 29.96 in 10.0 mi South 10.4 mph - N/A   Clear
8:15 PM 14.0 °F 1.2 °F 8.6 °F 79% 29.88 in 10.0 mi SSW 10.4 mph - N/A   Overcast
8:35 PM 14.0 °F 0.5 °F 8.6 °F 79% 29.87 in 10.0 mi SSW 11.5 mph 17.3 mph N/A   Overcast
8:55 PM 15.8 °F 1.4 °F 8.6 °F 73% 29.84 in 10.0 mi South 13.8 mph - N/A   Overcast
9:15 PM 15.8 °F 3.4 °F 8.6 °F 73% 29.85 in 10.0 mi SSW 10.4 mph - N/A   Overcast
9:35 PM 17.6 °F 6.4 °F 10.4 °F 73% 29.85 in 10.0 mi SSW 9.2 mph - N/A   Overcast
9:55 PM 17.6 °F 5.7 °F 10.4 °F 73% 29.82 in 10.0 mi South 10.4 mph - N/A   Overcast
10:15 PM 17.6 °F 3.2 °F 10.4 °F 73% 29.80 in 10.0 mi South 15.0 mph 20.7 mph N/A   Overcast
10:35 PM 19.4 °F 5.5 °F 12.2 °F 74% 29.79 in 10.0 mi SSW 15.0 mph - N/A   Overcast
10:55 PM 19.4 °F 6.0 °F 12.2 °F 74% 29.77 in 10.0 mi SSW 13.8 mph 20.7 mph N/A   Overcast
11:15 PM 21.2 °F 6.8 °F 12.2 °F 68% 29.76 in 10.0 mi SSW 17.3 mph 21.9 mph N/A   Overcast
11:35 PM 21.2 °F 6.8 °F 14.0 °F 74% 29.75 in 10.0 mi SSW 17.3 mph 23.0 mph N/A Snow Light Snow
11:55 PM 21.2 °F 6.8 °F 14.0 °F 74% 29.72 in 7.0 mi South 17.3 mph 23.0 mph N/A Snow Light Snow